Time,TemperatureF,DewpointF,PressureIn,WindDirection,WindDirectionDegrees,WindSpeedMPH,WindSpeedGustMPH,Humidity,HourlyPrecipIn,Conditions,Clouds,dailyrainin,SolarRadiationWatts/m^2,SoftwareType,DateUTC
2013-05-28 00:02:00,68.0,61.0,-100.00,SSW,195,0.0,3.0,78,0.00,,,0.00,0.000000,,2013-05-28 05:02:00,
2013-05-28 00:33:00,66.0,61.0,-100.00,SW,214,0.0,0.0,85,0.00,,,0.00,0.000000,,2013-05-28 05:33:00,
2013-05-28 00:42:00,66.0,61.0,-100.00,SW,214,0.0,0.0,85,0.00,,,0.00,0.000000,,2013-05-28 05:42:00,
2013-05-28 00:52:00,66.0,61.0,-100.00,SW,214,0.0,0.0,85,0.00,,,0.00,0.000000,,2013-05-28 05:52:00,
2013-05-28 01:02:00,66.0,61.0,-100.00,SW,214,0.0,0.0,85,0.00,,,0.00,0.000000,,2013-05-28 06:02:00,
2013-05-28 01:32:00,65.0,62.0,-100.00,SW,224,0.0,3.0,89,0.00,,,0.00,0.000000,,2013-05-28 06:32:00,
2013-05-28 01:42:00,65.0,62.0,-100.00,SW,224,0.0,3.0,89,0.00,,,0.00,0.000000,,2013-05-28 06:42:00,
2013-05-28 01:52:00,65.0,62.0,-100.00,SW,224,0.0,3.0,89,0.00,,,0.00,0.000000,,2013-05-28 06:52:00,
2013-05-28 02:01:00,65.0,62.0,-100.00,SW,224,0.0,3.0,89,0.00,,,0.00,0.000000,,2013-05-28 07:01:00,
2013-05-28 02:32:00,64.0,62.0,-100.00,SSW,213,0.0,2.0,92,0.00,,,0.00,0.000000,,2013-05-28 07:32:00,
2013-05-28 02:42:00,64.0,62.0,-100.00,SSW,213,0.0,2.0,92,0.00,,,0.00,0.000000,,2013-05-28 07:42:00,
2013-05-28 02:52:00,64.0,62.0,-100.00,SSW,213,0.0,2.0,92,0.00,,,0.00,0.000000,,2013-05-28 07:52:00,
2013-05-28 03:02:00,64.0,62.0,-100.00,SSW,213,0.0,2.0,92,0.00,,,0.00,0.000000,,2013-05-28 08:02:00,
2013-05-28 03:32:00,63.0,61.0,-100.00,SW,218,0.0,3.0,93,0.00,,,0.00,0.000000,,2013-05-28 08:32:00,
2013-05-28 03:42:00,63.0,61.0,-100.00,SW,218,0.0,3.0,93,0.00,,,0.00,0.000000,,2013-05-28 08:42:00,
2013-05-28 03:52:00,63.0,61.0,-100.00,SW,218,0.0,3.0,93,0.00,,,0.00,0.000000,,2013-05-28 08:52:00,
2013-05-28 04:01:00,63.0,61.0,-100.00,SW,218,0.0,3.0,93,0.00,,,0.00,0.000000,,2013-05-28 09:01:00,
2013-05-28 04:33:00,62.0,60.0,-100.00,WSW,239,0.0,0.0,94,0.00,,,0.00,0.000000,,2013-05-28 09:33:00,
2013-05-28 04:43:00,62.0,60.0,-100.00,WSW,239,0.0,0.0,94,0.00,,,0.00,0.000000,,2013-05-28 09:43:00,
2013-05-28 04:54:00,62.0,60.0,-100.00,WSW,239,0.0,0.0,94,0.00,,,0.00,0.000000,,2013-05-28 09:54:00,
2013-05-28 05:03:00,62.0,60.0,-100.00,WSW,239,0.0,0.0,94,0.00,,,0.00,0.000000,,2013-05-28 10:03:00,
2013-05-28 05:32:00,61.0,60.0,-100.00,SW,236,0.0,0.0,95,0.00,,,0.00,0.000000,,2013-05-28 10:32:00,
2013-05-28 05:43:00,61.0,60.0,-100.00,SW,236,0.0,0.0,95,0.00,,,0.00,0.000000,,2013-05-28 10:43:00,
2013-05-28 05:53:00,61.0,60.0,-100.00,SW,236,0.0,0.0,95,0.00,,,0.00,0.000000,,2013-05-28 10:53:00,
2013-05-28 06:02:00,61.0,60.0,-100.00,SW,236,0.0,0.0,95,0.00,,,0.00,0.000000,,2013-05-28 11:02:00,
2013-05-28 06:32:00,60.0,59.0,-100.00,WSW,241,0.0,0.0,95,0.00,,,0.00,2.000000,,2013-05-28 11:32:00,
2013-05-28 06:42:00,60.0,59.0,-100.00,WSW,241,0.0,0.0,95,0.00,,,0.00,2.000000,,2013-05-28 11:42:00,
2013-05-28 06:52:00,60.0,59.0,-100.00,WSW,241,0.0,0.0,95,0.00,,,0.00,2.000000,,2013-05-28 11:52:00,
2013-05-28 07:01:00,60.0,59.0,-100.00,WSW,241,0.0,0.0,95,0.00,,,0.00,2.000000,,2013-05-28 12:01:00,
2013-05-28 07:32:00,67.0,64.0,-100.00,SSW,213,0.0,0.0,90,0.00,,,0.00,80.000000,,2013-05-28 12:32:00,
2013-05-28 07:42:00,67.0,64.0,-100.00,SSW,213,0.0,0.0,90,0.00,,,0.00,80.000000,,2013-05-28 12:42:00,
2013-05-28 07:52:00,67.0,64.0,-100.00,SSW,213,0.0,0.0,90,0.00,,,0.00,80.000000,,2013-05-28 12:52:00,
2013-05-28 08:01:00,67.0,64.0,-100.00,SSW,213,0.0,0.0,90,0.00,,,0.00,80.000000,,2013-05-28 13:01:00,
2013-05-28 08:32:00,73.0,66.0,-100.00,SSE,156,2.0,5.0,78,0.00,,,0.00,237.000000,,2013-05-28 13:32:00,
2013-05-28 08:42:00,73.0,66.0,-100.00,SSE,156,2.0,5.0,78,0.00,,,0.00,237.000000,,2013-05-28 13:42:00,
2013-05-28 08:52:00,73.0,66.0,-100.00,SSE,156,2.0,5.0,78,0.00,,,0.00,237.000000,,2013-05-28 13:52:00,
2013-05-28 09:02:00,73.0,66.0,-100.00,SSE,156,2.0,5.0,78,0.00,,,0.00,237.000000,,2013-05-28 14:02:00,
2013-05-28 09:32:00,78.0,67.0,-100.00,ESE,123,3.0,5.0,69,0.00,,,0.00,370.000000,,2013-05-28 14:32:00,
2013-05-28 09:42:00,78.0,67.0,-100.00,ESE,123,3.0,5.0,69,0.00,,,0.00,370.000000,,2013-05-28 14:42:00,
2013-05-28 09:52:00,78.0,67.0,-100.00,ESE,123,3.0,5.0,69,0.00,,,0.00,370.000000,,2013-05-28 14:52:00,
2013-05-28 10:01:00,78.0,67.0,-100.00,ESE,123,3.0,5.0,69,0.00,,,0.00,370.000000,,2013-05-28 15:01:00,
2013-05-28 10:33:00,81.0,66.0,-100.00,SSE,154,4.0,10.0,61,0.00,,,0.00,554.000000,,2013-05-28 15:33:00,
2013-05-28 10:43:00,81.0,66.0,-100.00,SSE,154,4.0,10.0,61,0.00,,,0.00,554.000000,,2013-05-28 15:43:00,
2013-05-28 10:53:00,81.0,66.0,-100.00,SSE,154,4.0,10.0,61,0.00,,,0.00,554.000000,,2013-05-28 15:53:00,
2013-05-28 11:03:00,81.0,66.0,-100.00,SSE,154,4.0,10.0,61,0.00,,,0.00,554.000000,,2013-05-28 16:03:00,
2013-05-28 11:33:00,83.0,66.0,-100.00,SW,216,4.0,11.0,56,0.00,,,0.00,614.000000,,2013-05-28 16:33:00,
2013-05-28 11:42:00,83.0,66.0,-100.00,SW,216,4.0,11.0,56,0.00,,,0.00,614.000000,,2013-05-28 16:42:00,
2013-05-28 11:52:00,83.0,66.0,-100.00,SW,216,4.0,11.0,56,0.00,,,0.00,614.000000,,2013-05-28 16:52:00,
2013-05-28 12:02:00,83.0,66.0,-100.00,SW,216,4.0,11.0,56,0.00,,,0.00,614.000000,,2013-05-28 17:02:00,
2013-05-28 12:32:00,85.0,65.0,-100.00,South,178,3.0,9.0,52,0.00,,,0.00,676.000000,,2013-05-28 17:32:00,
2013-05-28 12:42:00,85.0,65.0,-100.00,South,178,3.0,9.0,52,0.00,,,0.00,676.000000,,2013-05-28 17:42:00,
2013-05-28 12:52:00,85.0,65.0,-100.00,South,178,3.0,9.0,52,0.00,,,0.00,676.000000,,2013-05-28 17:52:00,
2013-05-28 13:01:00,85.0,65.0,-100.00,South,178,3.0,9.0,52,0.00,,,0.00,676.000000,,2013-05-28 18:01:00,
2013-05-28 13:32:00,86.0,66.0,-100.00,South,172,3.0,8.0,51,0.00,,,0.00,717.000000,,2013-05-28 18:32:00,
2013-05-28 13:42:00,86.0,66.0,-100.00,South,172,3.0,8.0,51,0.00,,,0.00,717.000000,,2013-05-28 18:42:00,
2013-05-28 13:52:00,86.0,66.0,-100.00,South,172,3.0,8.0,51,0.00,,,0.00,717.000000,,2013-05-28 18:52:00,
2013-05-28 14:01:00,86.0,66.0,-100.00,South,172,3.0,8.0,51,0.00,,,0.00,717.000000,,2013-05-28 19:01:00,
2013-05-28 14:32:00,87.0,65.0,-100.00,South,186,4.0,9.0,48,0.00,,,0.00,687.000000,,2013-05-28 19:32:00,
2013-05-28 14:42:00,87.0,65.0,-100.00,South,186,4.0,9.0,48,0.00,,,0.00,687.000000,,2013-05-28 19:42:00,
2013-05-28 14:52:00,87.0,65.0,-100.00,South,186,4.0,9.0,48,0.00,,,0.00,687.000000,,2013-05-28 19:52:00,
2013-05-28 15:01:00,87.0,65.0,-100.00,South,186,4.0,9.0,48,0.00,,,0.00,687.000000,,2013-05-28 20:01:00,
2013-05-28 15:32:00,85.0,65.0,-100.00,ESE,112,3.0,9.0,51,0.00,,,0.00,541.000000,,2013-05-28 20:32:00,
2013-05-28 15:42:00,85.0,65.0,-100.00,ESE,112,3.0,9.0,51,0.00,,,0.00,541.000000,,2013-05-28 20:42:00,
2013-05-28 15:52:00,85.0,65.0,-100.00,ESE,112,3.0,9.0,51,0.00,,,0.00,541.000000,,2013-05-28 20:52:00,
2013-05-28 16:01:00,85.0,65.0,-100.00,ESE,112,3.0,9.0,51,0.00,,,0.00,541.000000,,2013-05-28 21:01:00,
2013-05-28 16:33:00,86.0,63.0,-100.00,ESE,104,3.0,11.0,47,0.00,,,0.00,486.000000,,2013-05-28 21:33:00,
2013-05-28 16:43:00,86.0,63.0,-100.00,ESE,104,3.0,11.0,47,0.00,,,0.00,486.000000,,2013-05-28 21:43:00,
2013-05-28 16:53:00,86.0,63.0,-100.00,ESE,104,3.0,11.0,47,0.00,,,0.00,486.000000,,2013-05-28 21:53:00,
2013-05-28 17:02:00,86.0,63.0,-100.00,ESE,104,3.0,11.0,47,0.00,,,0.00,486.000000,,2013-05-28 22:02:00,
2013-05-28 17:33:00,86.0,62.0,-100.00,SE,129,3.0,9.0,45,0.00,,,0.00,345.000000,,2013-05-28 22:33:00,
2013-05-28 17:42:00,86.0,62.0,-100.00,SE,129,3.0,9.0,45,0.00,,,0.00,345.000000,,2013-05-28 22:42:00,
2013-05-28 17:52:00,86.0,62.0,-100.00,SE,129,3.0,9.0,45,0.00,,,0.00,345.000000,,2013-05-28 22:52:00,
2013-05-28 18:02:00,86.0,62.0,-100.00,SE,129,3.0,9.0,45,0.00,,,0.00,345.000000,,2013-05-28 23:02:00,
2013-05-28 18:32:00,86.0,62.0,-100.00,SSE,147,3.0,10.0,44,0.00,,,0.00,301.000000,,2013-05-28 23:32:00,
2013-05-28 18:42:00,86.0,62.0,-100.00,SSE,147,3.0,10.0,44,0.00,,,0.00,301.000000,,2013-05-28 23:42:00,
2013-05-28 18:52:00,86.0,62.0,-100.00,SSE,147,3.0,10.0,44,0.00,,,0.00,301.000000,,2013-05-28 23:52:00,
2013-05-28 19:02:00,86.0,62.0,-100.00,SSE,147,3.0,10.0,44,0.00,,,0.00,301.000000,,2013-05-29 00:02:00,
2013-05-28 19:32:00,79.0,61.0,-100.00,SSW,199,1.0,7.0,54,0.00,,,0.00,127.000000,,2013-05-29 00:32:00,
2013-05-28 19:42:00,79.0,61.0,-100.00,SSW,199,1.0,7.0,54,0.00,,,0.00,127.000000,,2013-05-29 00:42:00,
2013-05-28 19:52:00,79.0,61.0,-100.00,SSW,199,1.0,7.0,54,0.00,,,0.00,127.000000,,2013-05-29 00:52:00,
2013-05-28 20:01:00,79.0,61.0,-100.00,SSW,199,1.0,7.0,54,0.00,,,0.00,127.000000,,2013-05-29 01:01:00,
2013-05-28 20:32:00,73.0,61.0,-100.00,SSW,197,0.0,4.0,65,0.00,,,0.00,7.000000,,2013-05-29 01:32:00,
2013-05-28 20:42:00,73.0,61.0,-100.00,SSW,197,0.0,4.0,65,0.00,,,0.00,7.000000,,2013-05-29 01:42:00,
2013-05-28 20:52:00,73.0,61.0,-100.00,SSW,197,0.0,4.0,65,0.00,,,0.00,7.000000,,2013-05-29 01:52:00,
2013-05-28 21:02:00,73.0,61.0,-100.00,SSW,197,0.0,4.0,65,0.00,,,0.00,7.000000,,2013-05-29 02:02:00,
2013-05-28 21:32:00,68.0,60.0,-100.00,SSW,203,0.0,2.0,76,0.00,,,0.00,0.000000,,2013-05-29 02:32:00,
2013-05-28 21:42:00,68.0,60.0,-100.00,SSW,203,0.0,2.0,76,0.00,,,0.00,0.000000,,2013-05-29 02:42:00,
2013-05-28 21:52:00,68.0,60.0,-100.00,SSW,203,0.0,2.0,76,0.00,,,0.00,0.000000,,2013-05-29 02:52:00,
2013-05-28 22:02:00,68.0,60.0,-100.00,SSW,203,0.0,2.0,76,0.00,,,0.00,0.000000,,2013-05-29 03:02:00,
2013-05-28 22:33:00,67.0,60.0,-100.00,SW,215,0.0,3.0,78,0.00,,,0.00,0.000000,,2013-05-29 03:33:00,
2013-05-28 22:43:00,67.0,60.0,-100.00,SW,215,0.0,3.0,78,0.00,,,0.00,0.000000,,2013-05-29 03:43:00,
2013-05-28 22:53:00,67.0,60.0,-100.00,SW,215,0.0,3.0,78,0.00,,,0.00,0.000000,,2013-05-29 03:53:00,
2013-05-28 23:02:00,67.0,60.0,-100.00,SW,215,0.0,3.0,78,0.00,,,0.00,0.000000,,2013-05-29 04:02:00,
2013-05-28 23:33:00,67.0,61.0,-100.00,SW,218,0.0,0.0,82,0.00,,,0.00,0.000000,,2013-05-29 04:33:00,
2013-05-28 23:42:00,67.0,61.0,-100.00,SW,218,0.0,0.0,82,0.00,,,0.00,0.000000,,2013-05-29 04:42:00,
2013-05-28 23:52:00,67.0,61.0,-100.00,SW,218,0.0,0.0,82,0.00,,,0.00,0.000000,,2013-05-29 04:52:00,